Regional Weather Roundup
Issued by NWS Goodland, KS

Home | Current Version | Previous Version | Graphics & Text | Print | Product List | Glossary On
Versions: 1 2 3 4 5 6 7 8 9 10 11 12 13 14 15 16 17 18 19 20 21 22 23 24 25 26 27 28 29 30 31 32 33 34 35 36 37 38 39 40 41 42 43 44 45 46 47 48 49 50
000
ASUS43 KGLD 290308
RWRGLD

GOODLAND FORECAST AREA HOURLY WEATHER ROUNDUP
NATIONAL WEATHER SERVICE GOODLAND KS
900 PM MDT SAT MAR 28 2015

...OFFICIAL OBSERVATIONS...

CITY           SKY/WX    TMP DP  RH WIND       PRES   REMARKS
GOODLAND KS    CLEAR     65  27  23 S15       29.87R
HILL CITY KS   CLEAR     62  40  44 S15       29.87F
IMPERIAL NEB     N/A     68  22  17 S10       29.78R
MCCOOK NEB     PTCLDY    65  36  34 S16       29.80R
AKRON CO       PTCLDY    61  22  22 SW9       29.89R
BURLINGTON CO  CLEAR     59  27  29 S15       29.90S
LIMON CO       CLEAR     51  26  37 CALM      29.97R
$$

...UNOFFICIAL OBSERVATIONS...

CITY           SKY/WX    TMP DP  RH WIND       PRES   REMARKS
COLBY KS       CLEAR     61  36  39 SE13      29.87S
GOVE KS          N/A     62  32  32 MISG        N/A
LENORA KS        N/A     60  32  34 MISG        N/A
NORTON KS      CLEAR     59  34  38 SE15G23   29.84F
SHARON SPRINGS   N/A     54  31  40 S13         N/A
KIT CARSON CO    N/A     57  28  33 MISG        N/A
YUMA CO          N/A     51  28  41 SW8         N/A
$$


USA.gov is the U.S. government's official web portal to all federal, state and local government web resources and services.